HXMT (HUIYAN)

Last updated on Mon Jun 22 2026 00:02:14 GMT+0000 (Coordinated Universal Time)

1 42758U 17034A 26172.40992159 .00002194 00000+0 11483-3 0 9993 2 42758 43.0125 159.5267 0031167 174.2454 185.8758 15.18496419498307
UTC large
Height (km)
Speed (km/s)
/
Latitude / Longitude
Inclination (degrees)
Orbital Period (minutes)
Azimuth
Elevation
Range (km)
Doppler Factor

Next 0 passes for location: London (51.5072 / 0.1276)

No passes found over London.
HXMT (HUIYAN)